This demonstration page uses our WeatherBlox Daily Observations layout. Learn more.

Left ArrowRight Arrow

Hourly Observations for May 10, 2020

Temp ( °F °C ) Dew Point ( °F °C ) Humidity (%) Winds ( mph kmh ) Pressure ( in mb ) Visibility ( mi km ) Precip ( " mm )
12:56 am 00:56 Mostly Clear 38 3.3 27 -2.8 65 65 NNW 10 17 30.37 1028 10 16 0.00 0.00
1:56 am 01:56 Clear 37 2.8 26 -3.3 65 65 NNW 13 20 30.38 1029 10 16 0.00 0.00
2:56 am 02:56 Clear 35 1.7 26 -3.3 70 70 NNW 9 15 30.37 1029 10 16 0.00 0.00
3:56 am 03:56 Clear 33 0.6 26 -3.3 75 75 NNW 10 17 30.38 1029 10 16 0.00 0.00
4:56 am 04:56 Clear 31 -0.6 26 -3.3 82 82 NW 8 13 30.40 1029 10 16 0.00 0.00
5:56 am 05:56 Clear 31 -0.6 25 -3.9 79 79 NW 9 15 30.40 1030 10 16 0.00 0.00
6:56 am 06:56 Sunny 30 -1.1 25 -3.9 82 82 NNW 10 17 30.40 1030 10 16 0.00 0.00
7:56 am 07:56 Sunny 34 1.1 25 -3.9 70 70 NW 10 17 30.42 1030 10 16 0.00 0.00
8:56 am 08:56 Sunny 38 3.3 25 -3.9 60 60 NW 14 22 30.44 1031 10 16 0.00 0.00
9:56 am 09:56 Sunny 41 5 25 -3.9 53 53 NNW 9 15 30.43 1031 10 16 0.00 0.00
10:56 am 10:56 Sunny 44 6.7 24 -4.4 45 45 N 10 17 30.43 1031 10 16 0.00 0.00
11:56 am 11:56 Sunny 48 8.9 25 -3.9 41 41 N 13 20 30.43 1030 10 16 0.00 0.00
12:56 pm 12:56 Sunny 50 10 27 -2.8 41 41 N 15 24 30.41 1030 10 16 0.00 0.00
1:56 pm 13:56 Sunny 51 10.6 28 -2.2 41 41 N 14 22 30.39 1029 10 16 0.00 0.00
2:56 pm 14:56 Sunny 53 11.7 29 -1.7 40 40 NNW 20 31 30.38 1029 10 16 0.00 0.00
3:56 pm 15:56 Sunny 54 12.2 28 -2.2 37 37 NNW 10 17 30.37 1029 10 16 0.00 0.00
4:56 pm 16:56 Partly Cloudy 54 12.2 29 -1.7 38 38 N 15 24 30.37 1028 10 16 0.00 0.00
5:56 pm 17:56 Partly Cloudy 54 12.2 31 -0.6 42 42 N 18 30 30.37 1028 10 16 0.00 0.00
6:56 pm 18:56 Mostly Cloudy 52 11.1 30 -1.1 43 43 N 15 24 30.37 1029 10 16 0.00 0.00
7:56 pm 19:56 Mostly Cloudy 49 9.4 29 -1.7 46 46 NNE 14 22 30.37 1028 10 16 0.00 0.00
8:56 pm 20:56 Mostly Cloudy 46 7.8 29 -1.7 51 51 N 14 22 30.37 1029 10 16 0.00 0.00
9:56 pm 21:56 Partly Cloudy 41 5 28 -2.2 60 60 ENE 5 7 30.40 1030 10 16 0.00 0.00
10:56 pm 22:56 Mostly Cloudy 43 6.1 30 -1.1 60 60 NE 7 11 30.40 1030 10 16 0.00 0.00
11:56 pm 23:56 Cloudy 43 6.1 29 -1.7 58 58 NE 5 7 30.40 1030 10 16 0.00 0.00

Powered by AerisWeather